Back to catalog

STARLINK-33732

AliveCommunicationsVLEO
NORAD 63575·PAYLOAD·🇺🇸 United States

Launched Apr 14, 2025 from Cape Canaveral Space Force Station

Loading…

Next Passes (next 24 hours)

TLE

FreshSource: CelesTrak SupGP

Epoch: Sep 15, 2026, 03:37 UTC

1 63575C 25076G   26258.15118056  .00049104  00000+0  17781-2 0  2587
2 63575  43.0019 331.8742 0001564 261.7540 123.3953 15.27562521    17

Track STARLINK-33732 in real time with AllMySat

Download on the App Store